Location: Newark
(16.3678°N, 77.8722°E)
Time: 11:08:08
(UTC+00:00)

S-56A Canister/Altair - Pass Details

Date: 14 December 2019
Orbit: 634 x 2498 km, 38.9° (Epoch: 25 January)

Event Time Altitude Azimuth Distance (km) Brightness Sun altitude
Rises 08:02:49 0° 307° (NW) 6,142 12.1 45.9°
Reaches altitude 10° 08:07:33 10° 316° (NW) 5,160 11.7 45.4°
Maximum altitude 08:20:40 35° 17° (NNE) 3,299 10.7 43.8°
Drops below altitude 10° 08:31:33 10° 78° (ENE) 4,308 11.1 42.4°
Sets 08:35:03 0° 88° (E) 5,051 11.4 41.9°
